| time (UTC) | temp C | wind direction | speed KPH | gust KPH | rain 1hr cm | rain 24hr cm | rain mn cm | humidity % | barometer mb |
| 20260905212022 | 19 | 77 | 3.2 | 11.3 | 0.00 | 0.00 | 0.00 | 78 | 1011.0 |
| 20260905211522 | 19 | 105 | 4.8 | 11.3 | 0.00 | 0.00 | 0.00 | 79 | 1011.0 |
| 20260905211022 | 19 | 100 | 4.8 | 11.3 | 0.00 | 0.00 | 0.00 | 79 | 1011.0 |
| 20260905210521 | 19 | 93 | 6.4 | 12.9 | 0.00 | 0.00 | 0.00 | 78 | 1011.0 |
| 20260905210021 | 20 | 99 | 8.0 | 17.7 | 0.00 | 0.00 | 0.00 | 76 | 1011.0 |
| 20260905205523 | 20 | 102 | 4.8 | 12.9 | 0.00 | 0.00 | 0.00 | 75 | 1010.8 |
| 20260905205023 | 20 | 92 | 6.4 | 14.5 | 0.00 | 0.00 | 0.00 | 75 | 1010.9 |
| 20260905204523 | 20 | 90 | 4.8 | 16.1 | 0.00 | 0.00 | 0.00 | 75 | 1010.9 |
| 20260905204027 | 20 | 81 | 3.2 | 11.3 | 0.00 | 0.00 | 0.00 | 77 | 1010.7 |
| 20260905203522 | 20 | 101 | 6.4 | 12.9 | 0.00 | 0.00 | 0.00 | 76 | 1010.7 |
| 20260905203022 | 20 | 117 | 6.4 | 16.1 | 0.00 | 0.00 | 0.00 | 75 | 1010.6 |
| 20260905202521 | 20 | 112 | 4.8 | 14.5 | 0.00 | 0.00 | 0.00 | 75 | 1010.7 |
| 20260905202041 | 21 | 126 | 8.0 | 14.5 | 0.00 | 0.00 | 0.00 | 74 | 1010.7 |
| 20260905201521 | 21 | 84 | 8.0 | 16.1 | 0.00 | 0.00 | 0.00 | 72 | 1010.5 |
| 20260905201021 | 21 | 73 | 3.2 | 12.9 | 0.00 | 0.00 | 0.00 | 72 | 1010.5 |
| 20260905200523 | 21 | 73 | 4.8 | 12.9 | 0.00 | 0.00 | 0.00 | 70 | 1010.3 |
| 20260905200022 | 21 | 79 | 3.2 | 16.1 | 0.00 | 0.00 | 0.00 | 69 | 1010.1 |
| 20260905195543 | 21 | 85 | 8.0 | 17.7 | 0.00 | 0.00 | 0.00 | 68 | 1010.2 |
| 20260905195042 | 21 | 73 | 4.8 | 17.7 | 0.00 | 0.00 | 0.00 | 68 | 1010.1 |
| 20260905194522 | 22 | 97 | 4.8 | 9.7 | 0.00 | 0.00 | 0.00 | 70 | 1010.0 |
| 20260905194021 | 21 | 109 | 4.8 | 14.5 | 0.00 | 0.00 | 0.00 | 69 | 1010.2 |
| 20260905193541 | 21 | 104 | 3.2 | 20.9 | 0.00 | 0.00 | 0.00 | 70 | 1010.2 |
| 20260905193021 | 22 | 71 | 6.4 | 20.9 | 0.00 | 0.00 | 0.00 | 69 | 1010.3 |
| 20260905192523 | 22 | 107 | 6.4 | 14.5 | 0.00 | 0.00 | 0.00 | 69 | 1010.3 |
| 20260905192023 | 22 | 106 | 8.0 | 14.5 | 0.00 | 0.00 | 0.00 | 70 | 1010.3 |
| 20260905191520 | 22 | 106 | 6.4 | 16.1 | 0.00 | 0.00 | 0.00 | 70 | 1010.3 |
| 20260905191043 | 22 | 116 | 8.0 | 16.1 | 0.00 | 0.00 | 0.00 | 70 | 1010.2 |
| 20260905190522 | 21 | 86 | 6.4 | 12.9 | 0.00 | 0.00 | 0.00 | 72 | 1010.2 |
| 20260905190022 | 21 | 118 | 6.4 | 14.5 | 0.00 | 0.00 | 0.00 | 72 | 1010.3 |
| 20260905185541 | 21 | 103 | 6.4 | 14.5 | 0.00 | 0.00 | 0.00 | 71 | 1010.4 |
| 20260905185021 | 21 | 81 | 6.4 | 14.5 | 0.00 | 0.00 | 0.00 | 71 | 1010.3 |
| 20260905184521 | 21 | 104 | 8.0 | 16.1 | 0.00 | 0.00 | 0.00 | 72 | 1010.4 |
| 20260905184022 | 21 | 107 | 6.4 | 12.9 | 0.00 | 0.00 | 0.00 | 72 | 1010.4 |
| 20260905183523 | 21 | 99 | 8.0 | 16.1 | 0.00 | 0.00 | 0.00 | 72 | 1010.4 |
| 20260905183022 | 21 | 115 | 8.0 | 14.5 | 0.00 | 0.00 | 0.00 | 75 | 1010.4 |
| 20260905182042 | 20 | 78 | 1.6 | 4.8 | 0.00 | 0.00 | 0.00 | 77 | 1010.5 |
| 20260905181522 | 20 | 81 | 3.2 | 9.7 | 0.00 | 0.00 | 0.00 | 76 | 1010.5 |
| 20260905181021 | 20 | 91 | 4.8 | 16.1 | 0.00 | 0.00 | 0.00 | 77 | 1010.5 |
| 20260905180606 | 20 | 86 | 4.8 | 11.3 | 0.00 | 0.00 | 0.00 | 77 | 1010.5 |
| 20260905180023 | 20 | 93 | 6.4 | 17.7 | 0.00 | 0.00 | 0.00 | 77 | 1010.5 |
| 20260905175523 | 20 | 89 | 8.0 | 22.5 | 0.00 | 0.00 | 0.00 | 76 | 1010.4 |
| 20260905175022 | 20 | 93 | 4.8 | 11.3 | 0.00 | 0.00 | 0.00 | 76 | 1010.3 |
| 20260905174522 | 20 | 103 | 3.2 | 24.1 | 0.00 | 0.00 | 0.00 | 75 | 1010.3 |
| 20260905174022 | 21 | 46 | 1.6 | 4.8 | 0.00 | 0.00 | 0.00 | 74 | 1010.1 |
| 20260905173522 | 21 | 56 | 3.2 | 16.1 | 0.00 | 0.00 | 0.00 | 73 | 1010.1 |
| 20260905173021 | 21 | 95 | 4.8 | 11.3 | 0.00 | 0.00 | 0.00 | 72 | 1010.0 |
| 20260905172521 | 21 | 62 | 1.6 | 4.8 | 0.00 | 0.00 | 0.00 | 72 | 1010.0 |
| 20260905172021 | 21 | 128 | 3.2 | 6.4 | 0.00 | 0.00 | 0.00 | 72 | 1009.9 |
| 20260905171521 | 21 | 108 | 1.6 | 6.4 | 0.00 | 0.00 | 0.00 | 73 | 1009.8 |
| 20260905171023 | 21 | 57 | 1.6 | 6.4 | 0.00 | 0.00 | 0.00 | 73 | 1009.8 |
| 20260905170522 | 21 | 8 | 1.6 | 6.4 | 0.00 | 0.00 | 0.00 | 73 | 1009.8 |
| 20260905170022 | 21 | 85 | 1.6 | 6.4 | 0.00 | 0.00 | 0.00 | 73 | 1009.9 |
| 20260905165522 | 21 | 323 | 1.6 | 3.2 | 0.00 | 0.00 | 0.00 | 73 | 1009.8 |
| 20260905165022 | 21 | 4 | 1.6 | 4.8 | 0.00 | 0.00 | 0.00 | 73 | 1009.9 |
| 20260905164522 | 21 | 88 | 3.2 | 6.4 | 0.00 | 0.00 | 0.00 | 74 | 1009.8 |
| 20260905164021 | 21 | 91 | 1.6 | 9.7 | 0.00 | 0.00 | 0.00 | 73 | 1009.8 |
| 20260905163521 | 21 | 317 | 1.6 | 4.8 | 0.00 | 0.00 | 0.00 | 72 | 1009.8 |
| 20260905163043 | 21 | 322 | 1.6 | 4.8 | 0.00 | 0.00 | 0.00 | 72 | 1009.8 |
| 20260905162523 | 20 | 305 | 0.0 | 3.2 | 0.00 | 0.00 | 0.00 | 72 | 1009.9 |
| 20260905162023 | 20 | 352 | 1.6 | 11.3 | 0.00 | 0.00 | 0.00 | 72 | 1009.9 |
| 20260905161602 | 20 | 86 | 3.2 | 11.3 | 0.00 | 0.00 | 0.00 | 73 | 1009.8 |
| 20260905161022 | 20 | 355 | 1.6 | 3.2 | 0.00 | 0.00 | 0.00 | 72 | 1010.0 |
| 20260905160522 | 21 | 22 | 1.6 | 3.2 | 0.00 | 0.00 | 0.00 | 73 | 1010.0 |
| 20260905160021 | 21 | 66 | 1.6 | 9.7 | 0.00 | 0.00 | 0.00 | 72 | 1009.8 |
| 20260905155541 | 21 | 78 | 3.2 | 12.9 | 0.00 | 0.00 | 0.00 | 73 | 1009.8 |
| 20260905155021 | 20 | 29 | 1.6 | 4.8 | 0.00 | 0.00 | 0.00 | 75 | 1009.9 |
| 20260905154522 | 20 | 35 | 0.0 | 6.4 | 0.00 | 0.00 | 0.00 | 75 | 1009.9 |
| 20260905154022 | 20 | 355 | 1.6 | 11.3 | 0.00 | 0.00 | 0.00 | 75 | 1010.0 |
| 20260905153527 | 20 | 75 | 1.6 | 6.4 | 0.00 | 0.00 | 0.00 | 76 | 1010.0 |
| 20260905153022 | 20 | 127 | 1.6 | 6.4 | 0.00 | 0.00 | 0.00 | 77 | 1010.0 |
| 20260905152543 | 20 | 69 | 1.6 | 6.4 | 0.00 | 0.00 | 0.00 | 79 | 1009.9 |
| 20260905152102 | 20 | 51 | 1.6 | 6.4 | 0.00 | 0.00 | 0.00 | 78 | 1009.9 |
| 20260905151521 | 20 | 347 | 1.6 | 9.7 | 0.00 | 0.00 | 0.00 | 77 | 1009.8 |
| 20260905151041 | 20 | 23 | 1.6 | 9.7 | 0.00 | 0.00 | 0.00 | 77 | 1009.8 |
| 20260905150521 | 20 | 338 | 0.0 | 3.2 | 0.00 | 0.00 | 0.00 | 77 | 1009.7 |
| 20260905150043 | 20 | 333 | 1.6 | 3.2 | 0.00 | 0.00 | 0.00 | 78 | 1009.8 |
| 20260905145542 | 20 | 345 | 0.0 | 4.8 | 0.00 | 0.00 | 0.00 | 77 | 1009.8 |
| 20260905144522 | 20 | 29 | 1.6 | 4.8 | 0.00 | 0.00 | 0.00 | 77 | 1009.8 |
| 20260905144022 | 20 | 321 | 1.6 | 3.2 | 0.00 | 0.00 | 0.00 | 77 | 1009.8 |
| 20260905143522 | 20 | 330 | 1.6 | 4.8 | 0.00 | 0.00 | 0.00 | 76 | 1009.8 |
| 20260905143122 | 20 | 347 | 1.6 | 3.2 | 0.00 | 0.00 | 0.00 | 76 | 1009.7 |
| 20260905142522 | 20 | 343 | 1.6 | 3.2 | 0.00 | 0.00 | 0.00 | 78 | 1009.8 |
| 20260905142021 | 20 | 16 | 0.0 | 3.2 | 0.00 | 0.00 | 0.00 | 79 | 1009.7 |
| 20260905141521 | 20 | 43 | 0.0 | 3.2 | 0.00 | 0.00 | 0.00 | 79 | 1009.8 |
| 20260905141021 | 20 | 347 | 0.0 | 3.2 | 0.00 | 0.00 | 0.00 | 80 | 1009.9 |
| 20260905140523 | 20 | 341 | 0.0 | 3.2 | 0.00 | 0.00 | 0.00 | 80 | 1009.9 |
| 20260905140022 | 20 | 344 | 0.0 | 1.6 | 0.00 | 0.00 | 0.00 | 80 | 1009.9 |
| 20260905135522 | 20 | 344 | 0.0 | 3.2 | 0.00 | 0.00 | 0.00 | 80 | 1009.9 |
| 20260905135102 | 20 | 53 | 1.6 | 3.2 | 0.00 | 0.00 | 0.00 | 79 | 1009.9 |
| 20260905133021 | 20 | 71 | 1.6 | 4.8 | 0.00 | 0.00 | 0.00 | 80 | 1009.6 |
| 20260905132521 | 20 | 331 | 1.6 | 3.2 | 0.00 | 0.00 | 0.00 | 80 | 1009.6 |
| 20260905132021 | 20 | 342 | 0.0 | 3.2 | 0.00 | 0.00 | 0.00 | 81 | 1009.5 |
| 20260905131520 | 20 | 342 | 1.6 | 3.2 | 0.00 | 0.00 | 0.00 | 80 | 1009.5 |
| 20260905131022 | 20 | 330 | 1.6 | 3.2 | 0.00 | 0.00 | 0.00 | 79 | 1009.5 |
| 20260905130522 | 20 | 63 | 1.6 | 3.2 | 0.00 | 0.00 | 0.00 | 80 | 1009.4 |
| 20260905130022 | 20 | 13 | 1.6 | 3.2 | 0.00 | 0.00 | 0.00 | 79 | 1009.4 |
| 20260905125521 | 20 | 31 | 1.6 | 11.3 | 0.00 | 0.00 | 0.00 | 79 | 1009.5 |
| 20260905125021 | 20 | 65 | 1.6 | 6.4 | 0.00 | 0.00 | 0.00 | 80 | 1009.4 |
| 20260905124521 | 19 | 351 | 0.0 | 3.2 | 0.00 | 0.00 | 0.00 | 80 | 1009.3 |
| 20260905124021 | 19 | 333 | 1.6 | 3.2 | 0.00 | 0.00 | 0.00 | 82 | 1009.4 |
| 20260905123521 | 19 | 332 | 0.0 | 3.2 | 0.00 | 0.00 | 0.00 | 81 | 1009.2 |
| 20260905123043 | 19 | 6 | 1.6 | 4.8 | 0.00 | 0.00 | 0.00 | 81 | 1009.1 |
| 20260905122542 | 19 | 350 | 0.0 | 1.6 | 0.00 | 0.00 | 0.00 | 83 | 1009.2 |
| 20260905122022 | 18 | 347 | 1.6 | 3.2 | 0.00 | 0.00 | 0.00 | 83 | 1009.1 |
| 20260905121522 | 18 | 346 | 0.0 | 3.2 | 0.00 | 0.00 | 0.00 | 84 | 1009.0 |
| 20260905121022 | 18 | 327 | 0.0 | 3.2 | 0.00 | 0.00 | 0.00 | 85 | 1009.0 |
| 20260905120521 | 18 | 346 | 0.0 | 1.6 | 0.00 | 0.00 | 0.00 | 86 | 1008.9 |
| 20260905120041 | 18 | 0.0 | 0.0 | 0.00 | 0.00 | 0.00 | 87 | 1009.0 | |
| 20260905115521 | 17 | 344 | 0.0 | 3.2 | 0.00 | 0.00 | 0.00 | 88 | 1009.0 |
| 20260905115024 | 17 | 0.0 | 0.0 | 0.00 | 0.00 | 0.00 | 88 | 1008.8 | |
| 20260905114522 | 17 | 61 | 0.0 | 3.2 | 0.00 | 0.00 | 0.00 | 88 | 1008.8 |
| 20260905114022 | 17 | 93 | 0.0 | 1.6 | 0.00 | 0.00 | 0.00 | 88 | 1008.9 |
| 20260905113522 | 17 | 0.0 | 1.6 | 0.00 | 0.00 | 0.00 | 89 | 1008.8 | |
| 20260905113021 | 17 | 0.0 | 0.0 | 0.00 | 0.00 | 0.00 | 89 | 1008.8 | |
| 20260905112521 | 17 | 0.0 | 0.0 | 0.00 | 0.00 | 0.00 | 90 | 1008.7 | |
| 20260905112041 | 16 | 0.0 | 0.0 | 0.00 | 0.00 | 0.00 | 91 | 1008.7 | |
| 20260905111523 | 16 | 0.0 | 0.0 | 0.00 | 0.00 | 0.00 | 92 | 1008.6 | |
| 20260905111021 | 16 | 0.0 | 0.0 | 0.00 | 0.00 | 0.00 | 93 | 1008.6 | |
| 20260905110522 | 16 | 0.0 | 0.0 | 0.00 | 0.00 | 0.00 | 94 | 1008.5 | |
| 20260905110022 | 15 | 0.0 | 0.0 | 0.00 | 0.00 | 0.00 | 96 | 1008.5 | |
| 20260905105527 | 15 | 0.0 | 0.0 | 0.00 | 0.00 | 0.00 | 96 | 1008.4 | |
| 20260905105022 | 15 | 0.0 | 0.0 | 0.00 | 0.00 | 0.00 | 96 | 1008.4 | |
| 20260905104521 | 15 | 0.0 | 0.0 | 0.00 | 0.00 | 0.00 | 97 | 1008.4 | |
| 20260905104021 | 15 | 0.0 | 0.0 | 0.00 | 0.00 | 0.00 | 97 | 1008.5 | |
| 20260905103521 | 15 | 0.0 | 0.0 | 0.00 | 0.00 | 0.00 | 97 | 1008.4 | |
| 20260905103021 | 15 | 0.0 | 0.0 | 0.00 | 0.00 | 0.00 | 97 | 1008.4 | |
| 20260905102523 | 15 | 0.0 | 0.0 | 0.00 | 0.00 | 0.00 | 97 | 1008.4 | |
| 20260905102023 | 15 | 0.0 | 0.0 | 0.00 | 0.00 | 0.00 | 97 | 1008.4 | |
| 20260905101522 | 15 | 0.0 | 0.0 | 0.00 | 0.00 | 0.00 | 97 | 1008.4 | |
| 20260905101022 | 15 | 0.0 | 0.0 | 0.00 | 0.00 | 0.00 | 97 | 1008.5 | |
| 20260905100522 | 15 | 0.0 | 0.0 | 0.00 | 0.00 | 0.00 | 97 | 1008.3 | |
| 20260905100022 | 15 | 0.0 | 0.0 | 0.00 | 0.00 | 0.00 | 97 | 1008.4 | |
| 20260905095521 | 15 | 0.0 | 0.0 | 0.00 | 0.00 | 0.00 | 97 | 1008.3 | |
| 20260905095041 | 14 | 0.0 | 0.0 | 0.00 | 0.00 | 0.00 | 97 | 1008.4 | |
| 20260905094523 | 15 | 0.0 | 0.0 | 0.00 | 0.00 | 0.00 | 97 | 1008.2 | |
| 20260905094022 | 15 | 0.0 | 0.0 | 0.00 | 0.00 | 0.00 | 97 | 1008.2 | |
| 20260905093522 | 15 | 0.0 | 0.0 | 0.00 | 0.00 | 0.00 | 97 | 1008.2 | |
| 20260905093022 | 15 | 0.0 | 0.0 | 0.00 | 0.00 | 0.00 | 96 | 1008.2 | |
| 20260905092522 | 15 | 0.0 | 0.0 | 0.00 | 0.00 | 0.00 | 96 | 1008.3 | |
| 20260905092021 | 15 | 0.0 | 0.0 | 0.00 | 0.00 | 0.00 | 96 | 1008.2 | |
| 20260905091521 | 15 | 0.0 | 0.0 | 0.00 | 0.00 | 0.00 | 96 | 1008.1 | |
| 20260905091041 | 15 | 0.0 | 0.0 | 0.00 | 0.00 | 0.00 | 96 | 1008.1 | |
| 20260905090523 | 15 | 0.0 | 0.0 | 0.00 | 0.00 | 0.00 | 96 | 1008.1 | |
| 20260905090023 | 15 | 0.0 | 0.0 | 0.00 | 0.00 | 0.00 | 96 | 1008.1 | |
| 20260905085522 | 15 | 0.0 | 0.0 | 0.00 | 0.00 | 0.00 | 96 | 1008.1 | |
| 20260905085022 | 15 | 0.0 | 0.0 | 0.00 | 0.00 | 0.00 | 95 | 1008.1 | |
| 20260905084522 | 15 | 0.0 | 0.0 | 0.00 | 0.00 | 0.00 | 95 | 1008.0 | |
| 20260905084022 | 15 | 0.0 | 0.0 | 0.00 | 0.00 | 0.00 | 95 | 1008.0 | |
| 20260905083521 | 15 | 0.0 | 0.0 | 0.00 | 0.00 | 0.00 | 95 | 1008.1 | |
| 20260905083021 | 15 | 0.0 | 0.0 | 0.00 | 0.00 | 0.00 | 95 | 1008.0 | |
| 20260905082541 | 15 | 0.0 | 0.0 | 0.00 | 0.00 | 0.00 | 94 | 1008.0 | |
| 20260905082023 | 15 | 0.0 | 0.0 | 0.00 | 0.00 | 0.00 | 94 | 1008.0 | |
| 20260905081521 | 15 | 0.0 | 0.0 | 0.00 | 0.00 | 0.00 | 94 | 1008.0 | |
| 20260905081022 | 15 | 0.0 | 0.0 | 0.00 | 0.00 | 0.00 | 94 | 1008.0 | |
| 20260905080522 | 15 | 93 | 0.0 | 1.6 | 0.00 | 0.00 | 0.00 | 94 | 1008.1 |
| 20260905080022 | 15 | 93 | 0.0 | 1.6 | 0.00 | 0.00 | 0.00 | 94 | 1008.0 |
| 20260905075522 | 15 | 93 | 0.0 | 1.6 | 0.00 | 0.00 | 0.00 | 94 | 1008.1 |
| 20260905075021 | 15 | 0.0 | 0.0 | 0.00 | 0.00 | 0.00 | 93 | 1008.1 | |
| 20260905074521 | 15 | 0.0 | 0.0 | 0.00 | 0.00 | 0.00 | 93 | 1008.1 | |
| 20260905074023 | 15 | 0.0 | 0.0 | 0.00 | 0.00 | 0.00 | 93 | 1008.1 | |
| 20260905073523 | 15 | 0.0 | 0.0 | 0.00 | 0.00 | 0.00 | 93 | 1008.0 | |
| 20260905073022 | 15 | 0.0 | 0.0 | 0.00 | 0.00 | 0.00 | 93 | 1008.1 | |
| 20260905072522 | 16 | 0.0 | 0.0 | 0.00 | 0.00 | 0.00 | 93 | 1008.2 | |
| 20260905072022 | 16 | 0.0 | 0.0 | 0.00 | 0.00 | 0.00 | 92 | 1008.2 | |
| 20260905071522 | 16 | 0.0 | 0.0 | 0.00 | 0.00 | 0.00 | 92 | 1008.2 | |
| 20260905071021 | 16 | 0.0 | 0.0 | 0.00 | 0.00 | 0.00 | 92 | 1008.2 | |
| 20260905070521 | 16 | 0.0 | 0.0 | 0.00 | 0.00 | 0.00 | 91 | 1008.2 | |
| 20260905070021 | 16 | 93 | 0.0 | 1.6 | 0.00 | 0.00 | 0.00 | 91 | 1008.3 |
| 20260905065521 | 16 | 0.0 | 0.0 | 0.00 | 0.00 | 0.00 | 90 | 1008.3 | |
| 20260905065021 | 16 | 0.0 | 0.0 | 0.00 | 0.00 | 0.00 | 89 | 1008.2 | |
| 20260905064523 | 16 | 0.0 | 1.6 | 0.00 | 0.00 | 0.00 | 88 | 1008.4 | |
| 20260905064022 | 17 | 93 | 0.0 | 1.6 | 0.00 | 0.00 | 0.00 | 88 | 1008.4 |
| 20260905063522 | 17 | 92 | 0.0 | 1.6 | 0.00 | 0.00 | 0.00 | 88 | 1008.4 |
| 20260905063022 | 17 | 93 | 0.0 | 1.6 | 0.00 | 0.00 | 0.00 | 88 | 1008.6 |
| 20260905062522 | 16 | 93 | 0.0 | 1.6 | 0.00 | 0.00 | 0.00 | 88 | 1008.5 |
| 20260905062022 | 16 | 95 | 0.0 | 1.6 | 0.00 | 0.00 | 0.00 | 89 | 1008.6 |
| 20260905061521 | 16 | 94 | 0.0 | 1.6 | 0.00 | 0.00 | 0.00 | 89 | 1008.7 |
| 20260905061041 | 16 | 90 | 0.0 | 3.2 | 0.00 | 0.00 | 0.00 | 89 | 1008.7 |
| 20260905060521 | 16 | 41 | 0.0 | 1.6 | 0.00 | 0.00 | 0.00 | 89 | 1008.7 |
| 20260905060101 | 16 | 18 | 0.0 | 1.6 | 0.00 | 0.00 | 0.00 | 89 | 1008.7 |
| 20260905055523 | 17 | 0.0 | 1.6 | 0.00 | 0.00 | 0.00 | 89 | 1008.7 | |
| 20260905055022 | 17 | 18 | 0.0 | 1.6 | 0.00 | 0.00 | 0.00 | 89 | 1008.7 |
| 20260905054522 | 16 | 17 | 0.0 | 3.2 | 0.00 | 0.00 | 0.00 | 89 | 1008.7 |
| 20260905054123 | 16 | 0.0 | 0.0 | 0.00 | 0.00 | 0.00 | 89 | 1008.7 | |
| 20260905053542 | 16 | 0.0 | 0.0 | 0.00 | 0.00 | 0.00 | 89 | 1008.6 | |
| 20260905053042 | 16 | 0.0 | 0.0 | 0.00 | 0.00 | 0.00 | 89 | 1008.7 | |
| 20260905052521 | 16 | 0.0 | 0.0 | 0.00 | 0.00 | 0.00 | 90 | 1008.6 | |
| 20260905052041 | 17 | 0.0 | 0.0 | 0.00 | 0.00 | 0.00 | 89 | 1008.6 | |
| 20260905051523 | 17 | 0.0 | 0.0 | 0.00 | 0.00 | 0.00 | 90 | 1008.7 | |
| 20260905051022 | 17 | 0.0 | 0.0 | 0.00 | 0.00 | 0.00 | 90 | 1008.7 | |
| 20260905050522 | 16 | 0.0 | 0.0 | 0.00 | 0.00 | 0.00 | 90 | 1008.7 | |
| 20260905050022 | 16 | 0.0 | 0.0 | 0.00 | 0.00 | 0.00 | 90 | 1008.6 | |
| 20260905045522 | 16 | 0.0 | 0.0 | 0.00 | 0.00 | 0.00 | 91 | 1008.6 | |
| 20260905045022 | 16 | 0.0 | 0.0 | 0.00 | 0.00 | 0.00 | 91 | 1008.6 | |
| 20260905044521 | 17 | 0.0 | 0.0 | 0.00 | 0.00 | 0.00 | 91 | 1008.6 | |
| 20260905044021 | 17 | 0.0 | 0.0 | 0.00 | 0.00 | 0.00 | 91 | 1008.5 | |
| 20260905043521 | 17 | 0.0 | 0.0 | 0.00 | 0.00 | 0.00 | 91 | 1008.5 | |
| 20260905043042 | 17 | 0.0 | 0.0 | 0.00 | 0.00 | 0.00 | 91 | 1008.5 | |
| 20260905042542 | 17 | 0.0 | 0.0 | 0.00 | 0.00 | 0.00 | 91 | 1008.7 | |
| 20260905042022 | 17 | 0.0 | 0.0 | 0.00 | 0.00 | 0.00 | 90 | 1008.8 | |
| 20260905041522 | 17 | 0.0 | 0.0 | 0.00 | 0.00 | 0.00 | 90 | 1008.8 | |
| 20260905041102 | 17 | 0.0 | 0.0 | 0.00 | 0.00 | 0.00 | 90 | 1008.9 | |
| 20260905040542 | 17 | 0.0 | 0.0 | 0.00 | 0.00 | 0.00 | 90 | 1008.8 | |
| 20260905040021 | 17 | 0.0 | 0.0 | 0.00 | 0.00 | 0.00 | 89 | 1008.7 | |
| 20260905035521 | 17 | 0.0 | 0.0 | 0.00 | 0.00 | 0.00 | 89 | 1008.7 | |
| 20260905035042 | 17 | 0.0 | 0.0 | 0.00 | 0.00 | 0.00 | 89 | 1008.7 | |
| 20260905034525 | 17 | 0.0 | 0.0 | 0.00 | 0.00 | 0.00 | 88 | 1008.6 | |
| 20260905034022 | 17 | 0.0 | 0.0 | 0.00 | 0.00 | 0.00 | 88 | 1008.7 | |
| 20260905033522 | 17 | 0.0 | 0.0 | 0.00 | 0.00 | 0.00 | 87 | 1008.7 | |
| 20260905033022 | 17 | 0.0 | 0.0 | 0.00 | 0.00 | 0.00 | 87 | 1008.8 | |
| 20260905032521 | 17 | 0.0 | 0.0 | 0.00 | 0.00 | 0.00 | 87 | 1008.8 | |
| 20260905032021 | 17 | 0.0 | 0.0 | 0.00 | 0.00 | 0.00 | 87 | 1008.8 | |
| 20260905031521 | 17 | 0.0 | 0.0 | 0.00 | 0.00 | 0.00 | 87 | 1008.8 | |
| 20260905031021 | 17 | 0.0 | 0.0 | 0.00 | 0.00 | 0.00 | 87 | 1008.8 | |
| 20260905030520 | 17 | 0.0 | 1.6 | 0.00 | 0.00 | 0.00 | 87 | 1008.8 | |
| 20260905030022 | 17 | 272 | 0.0 | 1.6 | 0.00 | 0.00 | 0.00 | 86 | 1008.8 |
| 20260905025522 | 18 | 0.0 | 0.0 | 0.00 | 0.00 | 0.00 | 87 | 1008.8 | |
| 20260905025022 | 18 | 0.0 | 0.0 | 0.00 | 0.00 | 0.00 | 87 | 1008.8 | |
| 20260905024542 | 18 | 0.0 | 0.0 | 0.00 | 0.00 | 0.00 | 86 | 1008.8 | |
| 20260905024021 | 18 | 0.0 | 0.0 | 0.00 | 0.00 | 0.00 | 85 | 1008.9 | |
| 20260905023521 | 18 | 0.0 | 0.0 | 0.00 | 0.00 | 0.00 | 85 | 1008.8 | |
| 20260905023021 | 18 | 0.0 | 0.0 | 0.00 | 0.00 | 0.00 | 85 | 1008.9 | |
| 20260905022521 | 18 | 0.0 | 0.0 | 0.00 | 0.00 | 0.00 | 85 | 1009.0 | |
| 20260905022021 | 18 | 272 | 0.0 | 1.6 | 0.00 | 0.00 | 0.00 | 85 | 1009.0 |
| 20260905021522 | 18 | 0.0 | 0.0 | 0.00 | 0.00 | 0.00 | 85 | 1009.0 | |
| 20260905021022 | 18 | 0.0 | 0.0 | 0.00 | 0.00 | 0.00 | 84 | 1009.0 | |
| 20260905020522 | 18 | 0.0 | 0.0 | 0.00 | 0.00 | 0.00 | 83 | 1009.1 | |
| 20260905020022 | 18 | 0.0 | 0.0 | 0.00 | 0.00 | 0.00 | 84 | 1009.1 | |
| 20260905015521 | 18 | 0.0 | 0.0 | 0.00 | 0.00 | 0.00 | 84 | 1009.0 | |
| 20260905015021 | 18 | 0.0 | 0.0 | 0.00 | 0.00 | 0.00 | 83 | 1009.1 | |
| 20260905014521 | 18 | 0.0 | 0.0 | 0.00 | 0.00 | 0.00 | 85 | 1009.2 | |
| 20260905014021 | 18 | 0.0 | 0.0 | 0.00 | 0.00 | 0.00 | 85 | 1009.2 | |
| 20260905013521 | 18 | 0.0 | 0.0 | 0.00 | 0.00 | 0.00 | 83 | 1009.1 | |
| 20260905013042 | 18 | 0.0 | 0.0 | 0.00 | 0.00 | 0.00 | 83 | 1009.1 | |
| 20260905012542 | 18 | 0.0 | 0.0 | 0.00 | 0.00 | 0.00 | 82 | 1009.1 | |
| 20260905012022 | 18 | 0.0 | 0.0 | 0.00 | 0.00 | 0.00 | 82 | 1009.2 | |
| 20260905011542 | 19 | 0.0 | 0.0 | 0.00 | 0.00 | 0.00 | 83 | 1009.1 | |
| 20260905011022 | 19 | 0.0 | 0.0 | 0.00 | 0.00 | 0.00 | 82 | 1009.2 | |
| 20260905010521 | 19 | 0.0 | 0.0 | 0.00 | 0.00 | 0.00 | 82 | 1009.3 | |
| 20260905010041 | 19 | 0.0 | 0.0 | 0.00 | 0.00 | 0.00 | 81 | 1009.1 | |
| 20260905005520 | 19 | 0.0 | 0.0 | 0.00 | 0.00 | 0.00 | 80 | 1009.1 | |
| 20260905005020 | 20 | 0.0 | 0.0 | 0.00 | 0.00 | 0.00 | 81 | 1009.1 | |
| 20260905004522 | 20 | 0.0 | 0.0 | 0.00 | 0.00 | 0.00 | 81 | 1009.2 | |
| 20260905004022 | 20 | 0.0 | 0.0 | 0.00 | 0.00 | 0.00 | 79 | 1009.1 | |
| 20260905003522 | 20 | 0.0 | 0.0 | 0.00 | 0.00 | 0.00 | 78 | 1009.0 | |
| 20260905003022 | 20 | 0.0 | 0.0 | 0.00 | 0.00 | 0.00 | 79 | 1009.0 | |
| 20260905002521 | 20 | 0.0 | 0.0 | 0.00 | 0.00 | 0.00 | 79 | 1009.0 | |
| 20260905002021 | 20 | 0.0 | 0.0 | 0.00 | 0.00 | 0.00 | 77 | 1009.0 | |
| 20260905001521 | 20 | 0.0 | 0.0 | 0.00 | 0.00 | 0.00 | 77 | 1008.9 | |
| 20260905001021 | 20 | 0.0 | 0.0 | 0.00 | 0.00 | 0.00 | 76 | 1008.9 | |
| 20260905000520 | 21 | 0.0 | 0.0 | 0.00 | 0.00 | 0.00 | 76 | 1008.7 | |
| 20260905000022 | 21 | 0.0 | 0.0 | 0.00 | 0.00 | 0.00 | 74 | 1008.8 | |
| 20260904235522 | 21 | 0.0 | 0.0 | 0.00 | 0.00 | 0.00 | 74 | 1008.8 | |
| 20260904235022 | 21 | 0.0 | 1.6 | 0.00 | 0.00 | 0.00 | 74 | 1008.6 | |
| 20260904234607 | 21 | 0.0 | 1.6 | 0.00 | 0.00 | 0.00 | 74 | 1008.6 | |
| 20260904234021 | 21 | 0.0 | 0.0 | 0.00 | 0.00 | 0.00 | 76 | 1008.5 | |
| 20260904233521 | 21 | 0.0 | 0.0 | 0.00 | 0.00 | 0.00 | 74 | 1008.4 | |
| 20260904233021 | 22 | 0.0 | 0.0 | 0.00 | 0.00 | 0.00 | 73 | 1008.4 | |
| 20260904232520 | 22 | 0.0 | 0.0 | 0.00 | 0.00 | 0.00 | 74 | 1008.2 | |
| 20260904232020 | 22 | 0.0 | 0.0 | 0.00 | 0.00 | 0.00 | 74 | 1008.2 | |
| 20260904231522 | 22 | 0.0 | 0.0 | 0.00 | 0.00 | 0.00 | 69 | 1008.2 | |
| 20260904231022 | 22 | 0.0 | 0.0 | 0.00 | 0.00 | 0.00 | 68 | 1008.2 | |
| 20260904230542 | 22 | 0.0 | 0.0 | 0.00 | 0.00 | 0.00 | 68 | 1008.2 | |
| 20260904230022 | 23 | 0.0 | 0.0 | 0.00 | 0.00 | 0.00 | 68 | 1008.2 | |
| 20260904225521 | 23 | 0.0 | 0.0 | 0.00 | 0.00 | 0.00 | 67 | 1008.1 | |
| 20260904225021 | 23 | 0.0 | 0.0 | 0.00 | 0.00 | 0.00 | 68 | 1008.2 | |
| 20260904224523 | 23 | 0.0 | 0.0 | 0.00 | 0.00 | 0.00 | 66 | 1008.2 | |
| 20260904224022 | 23 | 0.0 | 0.0 | 0.00 | 0.00 | 0.00 | 64 | 1008.2 | |
| 20260904223522 | 24 | 0.0 | 0.0 | 0.00 | 0.00 | 0.00 | 62 | 1008.1 | |
| 20260904223022 | 25 | 0.0 | 3.2 | 0.00 | 0.00 | 0.00 | 61 | 1008.1 | |
| 20260904222522 | 25 | 319 | 0.0 | 3.2 | 0.00 | 0.00 | 0.00 | 59 | 1008.1 |
| 20260904222022 | 25 | 339 | 0.0 | 3.2 | 0.00 | 0.00 | 0.00 | 58 | 1008.1 |
| 20260904221541 | 25 | 339 | 1.6 | 3.2 | 0.00 | 0.00 | 0.00 | 58 | 1007.9 |
| 20260904221021 | 25 | 339 | 1.6 | 3.2 | 0.00 | 0.00 | 0.00 | 58 | 1007.9 |
| 20260904220521 | 25 | 339 | 1.6 | 3.2 | 0.00 | 0.00 | 0.00 | 59 | 1008.0 |
| 20260904220021 | 26 | 23 | 0.0 | 3.2 | 0.00 | 0.00 | 0.00 | 55 | 1008.0 |
| 20260904215520 | 26 | 102 | 0.0 | 1.6 | 0.00 | 0.00 | 0.00 | 56 | 1007.9 |
| 20260904215022 | 25 | 35 | 1.6 | 4.8 | 0.00 | 0.00 | 0.00 | 55 | 1007.9 |
| 20260904214522 | 25 | 313 | 1.6 | 3.2 | 0.00 | 0.00 | 0.00 | 57 | 1008.0 |
| 20260904214021 | 25 | 116 | 0.0 | 1.6 | 0.00 | 0.00 | 0.00 | 61 | 1008.0 |
| 20260904213522 | 25 | 117 | 0.0 | 1.6 | 0.00 | 0.00 | 0.00 | 63 | 1008.0 |
| 20260904213021 | 25 | 117 | 0.0 | 1.6 | 0.00 | 0.00 | 0.00 | 60 | 1007.9 |
| 20260904212521 | 25 | 330 | 0.0 | 1.6 | 0.00 | 0.00 | 0.00 | 60 | 1007.8 |